CZ-3B DEB, 39333

Orbit data source: Space-Track

CZ-3B DEB, 39333 is space debris in HEO originally from a launch on Sat, 04 Sep 2010 UTC launched from the Xichang Space Center, China (XSC). Debris objects in space refer to the collection of defunct objects orbiting the Earth. Examples of debris include non-operational satellites, rocket bodies, and fragments generated from explosions, collisions, or faulty payload assembly.

Loading next visibility...
CZ-3B DEB details
Identifier
39333, 2010-042E
Orbit
HEO
Last TLE update5 days ago
Origin
Flag of CNCASC (CN / PRC)
ManufacturerCALT
MissionSpacecraft
Bus & MotorUnknown
MassUnknown
Launch date (UTC)
2010-09-04 (14 years ago)
Launch vehicleUnknown
Launch site
Xichang Space Center, China (XSC)
Object type
Payload
Rocket body
Debris
Shape & HBRUnknown
Radar Cross SectionMedium (>0.1 m² and <1 m²)

Expand to show TLE details & history

TLE from 5 days ago
0 CZ-3B DEB
1 39333U 10042E   24356.64598008  .00000036  00000-0  26809-2 0  9994
2 39333  23.3267 175.1442 7452454 225.7823  17.8837  1.90903575 79739
Epoch: 2024-12-21T15:30Z
Definitive object data (Epoch: 2024-12-21T15:30:12.678Z)
Latitude-12.00948°
Longitude-177.77414°
Altitude8,160.636 km
Speed6.349 km/s
True Right ascension09h 41m 53s
True Declination-11° 58' 31"
Sunlit
Object was in daylight at TLE epoch
Visualization TLE readout
Latitude16.42067°
Longitude-106.38922°
Altitude41,364.512 km
Speed1.475 km/s
Apparent Right ascension14h 35m 56s
Apparent Declination12° 52' 45"
Sunlit
Object is in daylight
Visualization observer readout
Local Sidereal Time13:14:41
Azimuth140.846° SSE
Elevation57.587°
Doppler factor1
Orbital elements
Apogee altitude41,534.278 km
Perigee altitude615.669 km
Semi-major axis27,453.111 km
Eccentricity0.7452454
Inclination23.3267°
RAAN175.1442°
Arg. of periapsis225.7823°
True anomaly102.76897°
Mean anomaly17.8837°
Eccentric anomaly51.12674°
Mean motion0.47715 °/min
BSTAR0.0026809
Orbital period754.48 mins
Loading maneuver chart data...
Loading historical data...
Loading historical data...
Loading historical data...
Loading historical data...
Loading historical data...
Loading historical data...
Loading historical data...

CZ-3B DEB Visibility forecast

Observer location: undefined°, undefined

Span
Click to sort rows by Start time (UTC) header in descending order
Start Az.
Max El. time (UTC)
Max El. Az.
Max El.
End time (UTC)
End Az.
382 mins2024-12-26 13:52:55.979Z140.862° SSE2024-12-26 16:37:55.979Z192.488° SSW42.68°2024-12-26 20:14:55.979Z126.331° SE
247 mins2024-12-27 09:45:55.979Z171.339° S2024-12-27 13:52:55.979Z158.24° S40.539°2024-12-27 13:52:55.979Z158.24° S
|